Volver al catálogo

STARLINK-34025

ActivoComunicacionesVLEO
NORAD 63824·PAYLOAD·🇺🇸 United States

Lanzado May 4, 2025 desde Cape Canaveral Space Force Station

Loading…

Próximos Pases (próximas 24 horas)

TLE

ActualizadoSource: CelesTrak SupGP

Época: Sep 15, 2026, 03:21 UTC

1 63824C 25092W   26258.14006944 -.00019953  00000+0 -72278-3 0  2587
2 63824  42.9997 182.2691 0001203 278.0589  49.9917 15.27584055    11

Sigue STARLINK-34025 en tiempo real con AllMySat

Download on the App Store